GAOFEN 10R

Last updated on Tue Nov 21 2023 00:02:25 GMT+0000 (Coordinated Universal Time)

1 44622U 19066A 23324.56459625 .00001605 00000+0 20808-3 0 9998 2 44622 97.9435 262.5705 0003782 80.1645 279.9994 14.82192858223158

Satellite not in orbit

GAOFEN 10R